Location: Helsinki
(60.1699°N, 24.9384°E)
Time: 13:49:01
(UTC+02:00)

Transit 4A - Pass Details

Date: 29 October 2020
Orbit: 862 x 982 km, 66.8° (Epoch: 26 November)

Event Time Altitude Azimuth Distance (km) Brightness Sun altitude
Rises 21:04:26 0° 297° (WNW) 3,685 12.1 -33.3°
Reaches altitude 10° 21:07:04 10° 302° (WNW) 2,742 11.2 -33.6°
Enters shadow 21:12:30 53° 348° (NNW) 1,205 8.6 -34.1°
Maximum altitude 21:13:25 57° 21° (NNE) 1,147 - -34.2°
Drops below altitude 10° 21:19:44 10° 100° (E) 2,729 - -34.8°
Sets 21:22:21 0° 105° (ESE) 3,665 - -35.1°
